{"data":{"norad_id":56069,"epoch":"2026-05-24T23:18:31.104576Z","epoch_age_seconds":74166,"freshness":"FRESH","line1":"1 56069U 23043Z   26144.97119334 -.00000049  00000+0 -16082-3 0  9996","line2":"2 56069  87.9107 233.3932 0002543  92.7524 267.3898 13.16594845155907","mean_motion":13.16594845,"eccentricity":0.0002543,"inclination_deg":87.9107,"raan_deg":233.3932,"arg_perigee_deg":92.7524,"mean_anomaly_deg":267.3898,"bstar":-0.00016082,"rev_number":15590,"period_min":109.37305470006,"perigee_km":1195.8278622782,"apogee_km":1199.68096065,"semimajor_km":7575.8914114641,"source":"CELESTRAK","updated_at":"2026-05-25T13:38:22.704958Z"}}